This is the latest recevied weather packets stored in our database for station/object WA1TYB-13. If no packets are shown the sender has not sent any weather packets the latest 10 day(s).
| Time | Temp. | Humidity | Pressure | Rain* | Wind** | Luminosity | Snow |
|---|---|---|---|---|---|---|---|
| 1788136036 | 68° F | 22% | 762.3 mmHg | 0 in | - | 137 W/m² | - |
| 1788135730 | 68° F | 21% | 762.1 mmHg | 0 in | - | 141 W/m² | - |
| 1788135427 | 68° F | 21% | 762.3 mmHg | 0 in | - | 156 W/m² | - |
| 1788135126 | 68° F | 19% | 762.1 mmHg | 0 in | - | 161 W/m² | - |
| 1788134823 | 69° F | 20% | 762.1 mmHg | 0 in | - | 190 W/m² | - |
| 1788134518 | 69° F | 20% | 762.1 mmHg | 0 in | - | 207 W/m² | - |
| 1788134217 | 69° F | 20% | 762.2 mmHg | 0 in | - | 198 W/m² | - |
| 1788133912 | 69° F | 20% | 762 mmHg | 0 in | - | 194 W/m² | - |
| 1788133607 | 69° F | 18% | 762.1 mmHg | 0 in | - | 173 W/m² | - |
| 1788133303 | 69° F | 20% | 762.1 mmHg | 0 in | - | 184 W/m² | - |
| 1788132998 | 69° F | 20% | 762.1 mmHg | 0 in | - | 254 W/m² | - |
| 1788132693 | 70° F | 19% | 762 mmHg | 0 in | - | 296 W/m² | - |
| 1788132390 | 69° F | 19% | 762.2 mmHg | 0 in | - | 302 W/m² | - |
| 1788132085 | 69° F | 18% | 762 mmHg | 0 in | - | 325 W/m² | - |
| 1788131781 | 69° F | 18% | 762.1 mmHg | 0 in | - | 338 W/m² | - |
| 1788131480 | 68° F | 21% | 762.1 mmHg | 0 in | - | 350 W/m² | - |
| 1788131176 | 69° F | 19% | 762.1 mmHg | 0 in | - | 362 W/m² | - |
| 1788130876 | 69° F | 20% | 762 mmHg | 0 in | - | 370 W/m² | - |
| 1788130571 | 69° F | 21% | 762.3 mmHg | 0 in | - | 384 W/m² | - |
| 1788130266 | 69° F | 21% | 762.1 mmHg | 0 in | - | 384 W/m² | - |
| 1788129964 | 69° F | 19% | 762.1 mmHg | 0 in | - | 419 W/m² | - |
| 1788129661 | 69° F | 20% | 762.3 mmHg | 0 in | - | 437 W/m² | - |
| 1788129358 | 69° F | 21% | 762.1 mmHg | 0 in | - | 423 W/m² | - |
| 1788129057 | 68° F | 21% | 762.2 mmHg | 0 in | - | 451 W/m² | - |
| 1788128752 | 69° F | 19% | 762.1 mmHg | 0 in | - | 515 W/m² | - |
* Rain latest hour (hover to see other rain measurements)
** Current wind speed in m/s (hover to see current wind gust speed)